Location: Stokes Fall Starparty
(41.2298°N, 74.7506°W)
Time: 15:40:43
(UTC-04:00)

Daily predictions for brighter satellites

Satellite Brightness Start Highest point End
(mag) Time Altitude Azimuth Time Altitude Azimuth Time Altitude Azimuth
Cosmos 489 Rocket 4.5 20:00:56 10° SSW 20:07:07 82° ESE 20:13:22 10° NNE
Cosmos 2184 Rocket 4.0 20:01:38 10° S 20:07:44 70° E 20:13:53 10° NNE
Cosmos 1346 Rocket 3.1 20:05:51 10° SSW 20:09:55 78° W 20:14:02 10° N
Cosmos 1300 2.7 20:10:06 10° S 20:13:55 87° W 20:17:46 10° N
Cosmos 2360 Rocket 2.6 20:09:55 10° SSW 20:15:33 73° WNW 20:21:11 10° NNE
Cosmos 1805 Rocket 3.6 20:13:15 10° N 20:17:34 58° E 20:21:49 10° SSE
SJ 16-02 4.5 20:14:27 10° WSW 20:17:45 21° WNW 20:21:05 10° NNW
NOSS 2-1 (C) 3.4 20:14:46 10° SSW 20:18:13 45° ESE 20:21:56 10° NE
OE (NEXTSAT) 4.4 20:15:38 10° SW 20:19:10 67° SSE 20:22:42 10° ENE
NOSS 2-1 (D) 3.3 20:15:43 10° SSW 20:19:12 48° ESE 20:22:56 10° NE
Resurs 01 Rocket 2.3 20:16:27 10° SE 20:20:32 37° ENE 20:24:38 10° N
Cosmos 2333 Rocket 2.9 20:16:45 10° SSE 20:21:37 30° ESE 20:26:29 10° NE
HJ-1C 4.1 20:20:09 10° S 20:23:26 58° W 20:26:46 10° NNW
ATLAS 2AS CENTAUR R/B 3.6 20:16:38 10° NNW 20:24:06 41° NE 20:30:50 11° ESE
H-2A R/B 3.7 20:25:26 10° WSW 20:26:27 11° SW 20:27:18 10° SW
CZ-2D R/B 3.4 20:22:42 10° S 20:26:29 78° WSW 20:30:19 10° NNW
COSMOS 2428 2.8 20:21:07 10° S 20:26:42 58° ESE 20:32:20 10° NNE
Meteor 2-15 4.5 20:22:18 10° N 20:28:25 63° E 20:34:26 10° SSE
Spot 2 Rocket 4.1 20:24:18 10° SE 20:28:59 38° ENE 20:33:42 10° N
Cosmos 2333 4.2 20:24:26 10° S 20:30:02 65° ESE 20:35:36 10° NNE
Cosmos 1844 Rocket 2.7 20:29:29 10° NNW 20:35:11 69° ENE 20:40:48 10° SSE
Cosmos 1844 4.0 20:29:39 10° NNW 20:35:14 54° ENE 20:40:34 11° SE
Meteor 2-21 4.4 20:30:34 10° S 20:36:37 67° E 20:42:45 10° NNE
Cosmos 2263 Rocket 4.4 20:32:11 10° NW 20:36:41 25° WSW 20:41:09 10° SSW
Cosmos 1455 2.8 20:34:49 10° SSE 20:38:17 34° E 20:41:49 10° NNE
Cosmos 2237 Rocket 3.1 20:39:00 10° SSE 20:43:34 26° ESE 20:48:09 10° NE
Cosmos 1892 2.8 20:40:03 10° N 20:43:54 59° E 20:47:44 10° SSE
Cosmos 2219 Rocket 2.3 20:38:55 10° S 20:44:26 56° ESE 20:49:57 10° NNE
ERS-2 2.7 20:41:15 10° S 20:44:52 60° WSW 20:48:31 10° NNW
Lacrosse 5 4.4 20:44:52 10° NW 20:47:22 13° N 20:49:53 10° NNE
BREEZE-M DEB (TANK) 3.1 20:43:23 10° WNW 20:48:07 48° NNE 20:49:38 20° E
NOSS 2-1 (E) 3.1 20:45:53 10° SW 20:49:31 87° NW 20:53:33 10° NE
Cosmos 1408 4.0 20:47:01 10° NNE 20:49:52 21° ENE 20:50:51 19° E
NOSS 0 Rocket 4.3 20:45:22 10° S 20:51:03 40° ESE 20:56:46 10° NE
ATLAS CENTAUR R/B 1.7 20:48:28 10° S 20:51:47 34° ESE 20:55:13 10° NE
Cosmos 2278 Rocket 3.1 20:47:01 10° N 20:52:08 33° ENE 20:55:30 19° ESE
Timation 1 Rocket 4.3 20:50:44 10° NNW 20:56:45 85° ENE 21:01:55 14° SSE
SL-8 Rocket 4.4 20:51:13 10° SSE 20:57:03 42° E 21:02:54 10° NNE
USA 186 2.4 20:55:34 10° S 20:57:38 35° W 20:59:46 10° NNW
Cosmos 1666 Rocket 3.6 20:53:25 10° N 20:57:55 83° W 21:02:22 10° S
NOAA 11 4.3 20:53:30 12° SSE 20:58:28 62° ENE 21:03:54 10° N
Resurs 1-3 3.7 20:54:31 10° S 20:58:55 81° W 21:03:19 10° NNW
Genesis I 4.2 20:55:22 10° NNW 20:59:09 35° NE 21:01:00 23° E
H-2A R/B 3.3 20:58:30 19° E 21:00:33 24° ENE 21:04:29 10° NNE
NOSS 3-3 (A) 3.9 20:55:17 10° SSW 21:01:15 74° ESE 21:07:48 10° NE
NOSS 3-3 (C) 3.9 20:55:24 10° SSW 21:01:21 74° ESE 21:07:54 10° NE
OAO 2 Rocket 4.1 20:57:34 10° WSW 21:02:21 38° S 21:04:58 23° SE
Cosmos 1933 Rocket 4.1 20:59:48 10° N 21:03:56 38° ENE 21:05:47 26° SE
YAOGAN 6 3.5 21:02:36 10° S 21:06:04 48° W 21:09:36 10° NNW
Meteor 2-21 Rocket 4.5 21:00:42 10° S 21:06:48 88° W 21:13:01 10° N
USA 267 3.9 21:05:42 10° ENE 21:11:22 31° SE 21:16:59 10° S
ERS-1 Rocket 4.1 21:10:18 23° E 21:11:59 28° ENE 21:16:11 10° N
Sich 1 3.9 21:08:52 10° NNW 21:13:00 49° W 21:17:06 10° SSW
Nadezhda 3 Rocket 4.3 21:08:01 10° NNW 21:14:17 69° W 21:20:34 10° S
Cosmos 1340 4.4 21:11:50 10° SW 21:15:19 34° WNW 21:18:50 10° N
Cosmos 1151 Rocket 3.0 21:13:26 19° S 21:16:22 59° E 21:20:35 10° NNE
Cosmos 220 Rocket 3.9 21:12:52 10° NNW 21:17:14 75° ENE 21:19:12 31° SSE
Cosmos 2251 Rocket 4.3 21:12:45 10° NNW 21:17:59 53° WSW 21:23:05 10° S
Cosmos 1939 Rocket 4.2 21:16:54 10° SSW 21:20:28 36° W 21:24:07 10° NNW
Cosmos 1825 2.2 21:24:09 10° N 21:27:53 55° E 21:28:24 50° ESE
Meteor 2-3 Rocket 4.0 21:24:18 10° NNW 21:29:51 68° W 21:34:38 14° S
Cosmos 1633 Rocket 4.2 21:27:41 10° NNW 21:31:47 41° W 21:35:51 10° SSW
SL-16 R/B 3.3 21:33:18 25° E 21:33:18 25° E 21:36:47 10° NE
Cosmos 2098 Rocket 3.4 21:31:01 39° SE 21:32:09 48° E 21:36:05 10° NNE
Cosmos 2056 Rocket 4.0 21:32:53 37° ESE 21:33:37 38° ESE 21:38:36 10° NE
Cosmos 1869 3.3 21:34:42 54° ESE 21:35:04 57° E 21:39:02 10° NNE
Cosmos 2228 Rocket 3.1 21:32:02 15° SSW 21:35:42 79° W 21:40:06 10° N
SL-8 R/B 3.6 21:35:15 10° SW 21:39:59 63° SE 21:41:34 39° E
Cosmos 1515 Rocket 3.8 21:37:20 13° SSW 21:41:12 68° W 21:45:40 10° N
Cosmos 405 4.3 21:42:33 10° N 21:44:48 29° NE 21:44:48 29° NE
ARGOS 3.0 21:44:34 40° SSE 21:46:35 81° ENE 21:51:58 10° NNW
Helios 1A 3.6 21:49:42 40° ENE 21:49:42 40° ENE 21:53:23 10° N
GEOS 3 Rocket 3.5 21:44:45 10° NE 21:50:05 66° ESE 21:55:18 10° SSW
Cosmos 1624 Rocket 4.0 21:50:09 51° SE 21:50:58 58° ESE 21:56:04 10° NNE
BREEZE-M DEB (TANK) 3.6 21:49:04 10° NW 21:51:02 33° NNW 21:51:02 33° NNW
SL-08 RB Rocket 3.5 21:52:57 65° SE 21:53:27 74° ENE 21:57:56 10° N
MetOp-B 4.0 21:51:53 46° SSE 21:53:34 83° ENE 21:58:56 10° NNW
Cosmos 1190 Rocket 4.3 21:50:39 10° N 21:55:48 50° ENE 21:56:23 48° E
Resurs 01 Rocket 4.0 21:53:50 10° SW 21:57:07 20° W 22:00:24 10° NW
Cosmos 1980 4.0 21:53:37 10° SSW 21:59:16 68° WNW 22:04:58 10° NNE
Cosmos 2297 4.1 21:56:46 10° NNW 22:02:15 47° ENE 22:02:58 44° E
Cosmos 1727 Rocket 3.8 21:56:58 10° N 22:03:11 79° E 22:04:57 49° SSE
BREEZE-M DEB (TANK) 4.1 21:59:48 10° WNW 22:04:06 23° NNW 22:05:12 19° NNE
Cosmos 2333 Rocket 3.6 22:00:27 10° SW 22:05:43 39° WNW 22:11:00 10° N
Cosmos 1140 Rocket 4.5 22:01:55 10° N 22:06:25 31° ENE 22:06:25 31° ENE
Cosmos 2369 Rocket 4.2 22:09:27 10° NNE 22:12:25 14° NE 22:13:27 14° ENE
Meteor 2-10 Rocket 3.7 22:11:14 39° SSW 22:13:27 82° W 22:19:19 10° N
ATLAS 2AS CENTAUR R/B 3.4 22:07:48 10° NW 22:15:19 52° WSW 22:18:17 34° S
DMSP B5D2-2 4.0 22:13:06 10° NNE 22:18:05 68° E 22:18:05 68° E
Cosmos 1862 4.2 22:15:29 10° N 22:18:24 45° N 22:18:24 45° N
Terra 2.9 22:21:54 33° NE 22:21:54 33° NE 22:25:18 10° N
Cosmos 2237 Rocket 3.2 22:22:00 10° SW 22:27:20 44° WNW 22:32:43 10° NNE
Cosmos 2219 Rocket 4.5 22:24:18 10° WSW 22:28:44 23° NW 22:33:12 10° N
SPOT 5 3.0 22:30:51 66° NNW 22:30:51 66° NNW 22:34:45 10° NNW
ATLAS CENTAUR R/B 3.7 22:28:00 10° W 22:30:50 20° NW 22:33:47 10° N
SPOT 1/Viking Rocket 3.5 22:31:21 84° NNE 22:31:21 84° NNE 22:36:26 10° NNW
Lacrosse 5 4.1 22:28:51 10° NNW 22:32:15 17° NNE 22:34:13 14° NE
USA 81 4.3 22:27:14 10° N 22:32:28 63° W 22:32:58 60° WSW
Cosmos 2278 Rocket 3.3 22:31:05 10° NW 22:36:13 36° WSW 22:37:23 33° SW
CZ-4C R/B 4.5 22:41:44 12° NE 22:41:44 12° NE 22:42:13 10° NE
H-2A R/B 2.9 22:39:07 39° WSW 22:39:44 41° W 22:44:28 10° NNW
NOSS 3-4 (A) 3.7 22:38:42 10° NW 22:45:48 90° NE 22:46:43 72° SE
NOSS 3-4 (C) 3.7 22:38:48 10° NW 22:45:55 89° NE 22:46:49 72° SE
ATLAS 5 CENTAUR R/B 4.1 22:43:58 10° NNW 22:48:24 22° NE 22:49:39 20° NE
Cosmos 407 Rocket 4.0 22:43:29 10° NNW 22:48:01 54° W 22:48:01 54° W
ERS-1 Rocket 4.1 22:50:18 34° WSW 22:50:37 35° W 22:55:12 10° NNW
USA 267 3.3 22:48:10 10° NE 22:54:42 74° NW 23:01:12 10° WSW
Cosmos 2344 3.5 23:10:53 59° SW 23:12:38 87° NW 23:21:01 10° NE
SL-16 R/B 3.2 23:15:04 40° W 23:16:00 43° WNW 23:21:24 10° NNE
USA 234 3.4 23:27:52 65° NNE 23:27:52 65° NNE 23:34:18 10° NW
Cosmos 1934 Rocket 4.4 23:31:58 58° NW 23:31:58 58° NW 23:37:06 10° N
Cosmos 1943 Rocket 3.5 23:28:30 10° N 23:32:07 32° NNE 23:32:07 32° NNE
SeaSat 1 4.3 23:55:37 25° NNE 23:55:37 25° NNE 23:58:10 10° N
